Time,TemperatureF,DewpointF,PressureIn,WindDirection,WindDirectionDegrees,WindSpeedMPH,WindSpeedGustMPH,Humidity,HourlyPrecipIn,Conditions,Clouds,dailyrainin,SoftwareType,DateUTC
2013-07-27 00:00:00,70.5,66.0,30.01,SSW,205,1.0,0.0,84,0.00,,,0.01,oem by Ross Wheeler,2013-07-27 04:00:00,
2013-07-27 00:05:00,70.5,66.0,30.01,SSW,207,1.0,0.0,84,0.00,,,0.00,oem by Ross Wheeler,2013-07-27 04:05:00,
2013-07-27 00:10:00,70.5,66.0,30.01,SSW,202,0.0,0.0,84,0.00,,,0.00,oem by Ross Wheeler,2013-07-27 04:10:00,
2013-07-27 00:15:00,70.3,65.0,30.01,SW,227,1.0,0.0,84,0.00,,,0.00,oem by Ross Wheeler,2013-07-27 04:15:00,
2013-07-27 00:20:00,70.1,65.0,30.01,SSW,196,1.0,0.0,84,0.00,,,0.00,oem by Ross Wheeler,2013-07-27 04:20:00,
2013-07-27 00:25:00,70.1,65.0,30.01,SSW,207,0.0,0.0,85,0.00,,,0.00,oem by Ross Wheeler,2013-07-27 04:25:00,
2013-07-27 00:30:00,70.0,65.0,30.02,SSW,210,0.0,0.0,85,0.00,,,0.00,oem by Ross Wheeler,2013-07-27 04:30:00,
2013-07-27 00:40:00,69.8,65.0,30.02,SSW,210,0.0,0.0,85,0.00,,,0.00,oem by Ross Wheeler,2013-07-27 04:40:00,
2013-07-27 00:45:00,69.6,65.0,30.02,SSW,213,0.0,0.0,85,0.00,,,0.00,oem by Ross Wheeler,2013-07-27 04:45:00,
2013-07-27 00:55:00,69.3,65.0,30.02,SSW,213,0.0,0.0,86,0.00,,,0.00,oem by Ross Wheeler,2013-07-27 04:55:00,
2013-07-27 01:00:00,69.1,65.0,30.01,SSW,212,0.0,0.0,86,0.00,,,0.00,oem by Ross Wheeler,2013-07-27 05:00:00,
2013-07-27 01:10:00,69.0,65.0,30.01,SSW,212,0.0,0.0,87,0.00,,,0.00,oem by Ross Wheeler,2013-07-27 05:10:00,
2013-07-27 01:15:00,68.8,65.0,30.02,SSW,213,0.0,0.0,87,0.00,,,0.00,oem by Ross Wheeler,2013-07-27 05:15:00,
2013-07-27 01:25:00,68.5,65.0,30.02,SSW,213,2.0,0.0,88,0.00,,,0.00,oem by Ross Wheeler,2013-07-27 05:25:00,
2013-07-27 01:30:00,68.5,65.0,30.02,South,188,0.0,0.0,88,0.00,,,0.00,oem by Ross Wheeler,2013-07-27 05:30:00,
2013-07-27 01:40:00,68.5,65.0,30.02,SW,217,0.0,0.0,88,0.00,,,0.00,oem by Ross Wheeler,2013-07-27 05:40:00,
2013-07-27 01:45:00,68.3,65.0,30.02,SSW,210,0.0,0.0,89,0.00,,,0.00,oem by Ross Wheeler,2013-07-27 05:45:00,
2013-07-27 01:55:00,68.1,65.0,30.02,SSW,210,0.0,0.0,89,0.00,,,0.00,oem by Ross Wheeler,2013-07-27 05:55:00,
2013-07-27 02:00:00,68.1,65.0,30.02,SSW,200,0.0,0.0,89,0.00,,,0.00,oem by Ross Wheeler,2013-07-27 06:00:00,
2013-07-27 02:10:00,68.0,65.0,30.02,SSW,207,0.0,0.0,89,0.00,,,0.00,oem by Ross Wheeler,2013-07-27 06:10:00,
2013-07-27 02:15:00,67.8,65.0,30.01,SW,224,0.0,0.0,89,0.00,,,0.00,oem by Ross Wheeler,2013-07-27 06:15:00,
2013-07-27 02:25:00,67.8,65.0,30.01,SW,236,3.0,0.0,89,0.00,,,0.00,oem by Ross Wheeler,2013-07-27 06:25:00,
2013-07-27 02:30:00,67.8,65.0,30.01,WSW,248,0.0,0.0,90,0.00,,,0.00,oem by Ross Wheeler,2013-07-27 06:30:00,
2013-07-27 02:40:00,67.8,65.0,30.01,SW,215,3.0,0.0,90,0.00,,,0.00,oem by Ross Wheeler,2013-07-27 06:40:00,
2013-07-27 02:45:00,67.8,65.0,30.01,SW,215,0.0,0.0,90,0.00,,,0.00,oem by Ross Wheeler,2013-07-27 06:45:00,
2013-07-27 02:55:00,67.6,65.0,30.01,SSW,207,2.0,0.0,90,0.00,,,0.00,oem by Ross Wheeler,2013-07-27 06:55:00,
2013-07-27 03:00:00,67.6,65.0,30.01,SSW,207,1.0,0.0,90,0.00,,,0.00,oem by Ross Wheeler,2013-07-27 07:00:00,
2013-07-27 03:10:00,67.6,65.0,30.01,SSW,207,0.0,0.0,90,0.00,,,0.00,oem by Ross Wheeler,2013-07-27 07:10:00,
2013-07-27 03:15:00,67.6,65.0,30.00,SSW,207,0.0,0.0,91,0.00,,,0.00,oem by Ross Wheeler,2013-07-27 07:15:00,
2013-07-27 03:25:00,67.5,65.0,30.00,SSW,203,5.0,0.0,91,0.00,,,0.00,oem by Ross Wheeler,2013-07-27 07:25:00,
2013-07-27 03:30:00,67.5,65.0,30.00,SSW,209,3.0,0.0,91,0.00,,,0.00,oem by Ross Wheeler,2013-07-27 07:30:00,
2013-07-27 03:40:00,67.6,65.0,30.00,SSW,213,3.0,0.0,91,0.00,,,0.00,oem by Ross Wheeler,2013-07-27 07:40:00,
2013-07-27 03:45:00,67.6,65.0,30.00,SSW,205,0.0,0.0,91,0.00,,,0.00,oem by Ross Wheeler,2013-07-27 07:45:00,
2013-07-27 03:55:00,67.5,65.0,30.00,SW,216,2.0,0.0,91,0.00,,,0.00,oem by Ross Wheeler,2013-07-27 07:55:00,
2013-07-27 04:00:00,67.5,65.0,30.00,SSW,212,0.0,0.0,91,0.00,,,0.00,oem by Ross Wheeler,2013-07-27 08:00:00,
2013-07-27 04:10:00,67.5,65.0,30.00,SSW,203,0.0,0.0,91,0.00,,,0.00,oem by Ross Wheeler,2013-07-27 08:10:00,
2013-07-27 04:15:00,67.5,65.0,30.00,SSW,209,0.0,0.0,91,0.00,,,0.00,oem by Ross Wheeler,2013-07-27 08:15:00,
2013-07-27 04:25:00,67.5,65.0,30.00,SSW,209,0.0,0.0,91,0.00,,,0.00,oem by Ross Wheeler,2013-07-27 08:25:00,
2013-07-27 04:30:00,67.5,65.0,30.00,SSW,209,0.0,0.0,91,0.00,,,0.00,oem by Ross Wheeler,2013-07-27 08:30:00,
2013-07-27 04:40:00,67.3,65.0,30.00,SSW,209,0.0,0.0,91,0.00,,,0.00,oem by Ross Wheeler,2013-07-27 08:40:00,
2013-07-27 04:45:00,67.0,64.0,30.00,SSW,209,0.0,0.0,91,0.00,,,0.00,oem by Ross Wheeler,2013-07-27 08:45:00,
2013-07-27 04:55:00,66.6,64.0,30.00,SSW,209,0.0,0.0,92,0.00,,,0.00,oem by Ross Wheeler,2013-07-27 08:55:00,
2013-07-27 05:00:00,66.6,64.0,30.01,SSW,209,0.0,0.0,92,0.00,,,0.00,oem by Ross Wheeler,2013-07-27 09:00:00,
2013-07-27 05:10:00,66.5,64.0,30.01,SSW,209,0.0,0.0,92,0.00,,,0.00,oem by Ross Wheeler,2013-07-27 09:10:00,
2013-07-27 05:15:00,66.5,64.0,30.01,SSW,209,0.0,0.0,92,0.00,,,0.00,oem by Ross Wheeler,2013-07-27 09:15:00,
2013-07-27 05:25:00,66.3,64.0,30.01,SSW,209,0.0,0.0,92,0.00,,,0.00,oem by Ross Wheeler,2013-07-27 09:25:00,
2013-07-27 05:30:00,66.3,64.0,30.01,SSW,202,1.0,0.0,93,0.00,,,0.00,oem by Ross Wheeler,2013-07-27 09:30:00,
2013-07-27 05:40:00,66.5,65.0,30.01,SSW,202,0.0,0.0,93,0.00,,,0.00,oem by Ross Wheeler,2013-07-27 09:40:00,
2013-07-27 05:45:00,66.5,65.0,30.01,SSW,202,1.0,0.0,93,0.00,,,0.00,oem by Ross Wheeler,2013-07-27 09:45:00,
2013-07-27 05:55:00,66.5,65.0,30.01,SSW,202,2.0,0.0,93,0.00,,,0.00,oem by Ross Wheeler,2013-07-27 09:55:00,
2013-07-27 06:00:00,66.5,65.0,30.02,WSW,257,0.0,0.0,93,0.00,,,0.00,oem by Ross Wheeler,2013-07-27 10:00:00,
2013-07-27 06:10:00,66.3,64.0,30.02,SSW,205,0.0,0.0,93,0.00,,,0.00,oem by Ross Wheeler,2013-07-27 10:10:00,
2013-07-27 06:15:00,66.3,64.0,30.02,SSW,205,0.0,0.0,93,0.00,,,0.00,oem by Ross Wheeler,2013-07-27 10:15:00,
2013-07-27 06:25:00,66.3,64.0,30.02,SSW,212,0.0,0.0,93,0.00,,,0.00,oem by Ross Wheeler,2013-07-27 10:25:00,
2013-07-27 06:30:00,66.3,64.0,30.01,SSW,212,0.0,0.0,93,0.00,,,0.00,oem by Ross Wheeler,2013-07-27 10:30:00,
2013-07-27 06:40:00,66.3,64.0,30.01,SSW,207,0.0,0.0,93,0.00,,,0.00,oem by Ross Wheeler,2013-07-27 10:40:00,
2013-07-27 06:45:00,66.3,64.0,30.01,SSW,207,1.0,0.0,93,0.00,,,0.00,oem by Ross Wheeler,2013-07-27 10:45:00,
2013-07-27 06:55:00,66.5,65.0,30.01,SSW,213,1.0,0.0,93,0.00,,,0.00,oem by Ross Wheeler,2013-07-27 10:55:00,
2013-07-27 07:00:00,66.6,65.0,30.01,SSW,198,0.0,0.0,93,0.00,,,0.00,oem by Ross Wheeler,2013-07-27 11:00:00,
2013-07-27 07:10:00,66.8,65.0,30.01,SSW,198,0.0,0.0,93,0.00,,,0.00,oem by Ross Wheeler,2013-07-27 11:10:00,
2013-07-27 07:15:00,66.8,65.0,30.01,SW,220,0.0,0.0,93,0.00,,,0.00,oem by Ross Wheeler,2013-07-27 11:15:00,
2013-07-27 07:25:00,67.0,65.0,30.01,SW,215,1.0,0.0,93,0.00,,,0.00,oem by Ross Wheeler,2013-07-27 11:25:00,
2013-07-27 07:30:00,67.1,65.0,30.01,SSW,213,0.0,0.0,92,0.00,,,0.00,oem by Ross Wheeler,2013-07-27 11:30:00,
2013-07-27 07:40:00,67.5,65.0,30.01,SW,226,0.0,0.0,92,0.00,,,0.00,oem by Ross Wheeler,2013-07-27 11:40:00,
2013-07-27 07:45:00,67.6,65.0,30.01,SW,215,0.0,0.0,92,0.00,,,0.00,oem by Ross Wheeler,2013-07-27 11:45:00,
2013-07-27 07:55:00,68.0,66.0,30.01,SW,215,0.0,0.0,92,0.00,,,0.00,oem by Ross Wheeler,2013-07-27 11:55:00,
2013-07-27 08:00:00,68.1,66.0,30.02,SW,215,0.0,0.0,92,0.00,,,0.00,oem by Ross Wheeler,2013-07-27 12:00:00,
2013-07-27 08:10:00,68.5,66.0,30.02,SW,219,3.0,0.0,91,0.00,,,0.00,oem by Ross Wheeler,2013-07-27 12:10:00,
2013-07-27 08:15:00,68.8,66.0,30.02,SW,223,0.0,0.0,91,0.00,,,0.00,oem by Ross Wheeler,2013-07-27 12:15:00,
2013-07-27 08:25:00,69.1,66.0,30.02,SSW,207,0.0,0.0,90,0.00,,,0.00,oem by Ross Wheeler,2013-07-27 12:25:00,
2013-07-27 08:30:00,69.5,66.0,30.02,SSW,207,5.0,0.0,89,0.00,,,0.00,oem by Ross Wheeler,2013-07-27 12:30:00,
2013-07-27 08:40:00,69.8,66.0,30.02,SW,224,0.0,0.0,88,0.00,,,0.00,oem by Ross Wheeler,2013-07-27 12:40:00,
2013-07-27 08:45:00,70.1,67.0,30.02,SSW,212,0.0,0.0,88,0.00,,,0.00,oem by Ross Wheeler,2013-07-27 12:45:00,
2013-07-27 08:55:00,70.5,67.0,30.02,SSW,203,2.0,0.0,87,0.00,,,0.00,oem by Ross Wheeler,2013-07-27 12:55:00,
2013-07-27 09:00:00,70.8,67.0,30.02,SW,215,5.0,0.0,86,0.00,,,0.00,oem by Ross Wheeler,2013-07-27 13:00:00,
2013-07-27 09:10:00,71.2,66.0,30.02,SSW,207,2.0,0.0,84,0.00,,,0.00,oem by Ross Wheeler,2013-07-27 13:10:00,
2013-07-27 09:15:00,71.5,67.0,30.01,SW,226,0.0,0.0,84,0.00,,,0.00,oem by Ross Wheeler,2013-07-27 13:15:00,
2013-07-27 09:25:00,72.2,66.0,30.01,SW,219,0.0,0.0,82,0.00,,,0.00,oem by Ross Wheeler,2013-07-27 13:25:00,
2013-07-27 09:30:00,72.7,67.0,30.02,SSW,210,0.0,0.0,81,0.00,,,0.00,oem by Ross Wheeler,2013-07-27 13:30:00,
2013-07-27 09:40:00,73.2,67.0,30.02,SSW,196,5.0,0.0,81,0.00,,,0.00,oem by Ross Wheeler,2013-07-27 13:40:00,
2013-07-27 09:45:00,73.4,66.0,30.02,SW,219,0.0,0.0,78,0.00,,,0.00,oem by Ross Wheeler,2013-07-27 13:45:00,
2013-07-27 09:55:00,74.1,66.0,30.02,SW,231,0.0,0.0,77,0.00,,,0.00,oem by Ross Wheeler,2013-07-27 13:55:00,
2013-07-27 10:00:00,74.5,67.0,30.02,SW,217,3.0,0.0,76,0.00,,,0.00,oem by Ross Wheeler,2013-07-27 14:00:00,
2013-07-27 10:10:00,75.0,66.0,30.02,SSW,198,1.0,0.0,74,0.00,,,0.00,oem by Ross Wheeler,2013-07-27 14:10:00,
2013-07-27 10:15:00,75.2,66.0,30.02,SW,227,0.0,0.0,72,0.00,,,0.00,oem by Ross Wheeler,2013-07-27 14:15:00,
2013-07-27 10:25:00,75.7,66.0,30.02,SSW,192,0.0,0.0,71,0.00,,,0.00,oem by Ross Wheeler,2013-07-27 14:25:00,
2013-07-27 10:30:00,76.0,66.0,30.02,SW,219,1.0,0.0,72,0.00,,,0.00,oem by Ross Wheeler,2013-07-27 14:30:00,
2013-07-27 10:40:00,76.6,66.0,30.02,SW,215,8.0,0.0,69,0.00,,,0.00,oem by Ross Wheeler,2013-07-27 14:40:00,
2013-07-27 10:45:00,76.8,65.0,30.02,WSW,240,0.0,0.0,68,0.00,,,0.00,oem by Ross Wheeler,2013-07-27 14:45:00,
2013-07-27 10:55:00,77.1,64.0,30.02,SSW,207,2.0,0.0,64,0.00,,,0.00,oem by Ross Wheeler,2013-07-27 14:55:00,
2013-07-27 11:00:00,77.3,65.0,30.02,SSW,209,2.0,0.0,66,0.00,,,0.00,oem by Ross Wheeler,2013-07-27 15:00:00,
2013-07-27 11:10:00,77.5,64.0,30.02,SW,223,0.0,0.0,64,0.00,,,0.00,oem by Ross Wheeler,2013-07-27 15:10:00,
2013-07-27 11:15:00,77.8,66.0,30.02,SSW,205,1.0,0.0,66,0.00,,,0.00,oem by Ross Wheeler,2013-07-27 15:15:00,
2013-07-27 11:25:00,77.8,65.0,30.02,SW,215,2.0,0.0,65,0.00,,,0.00,oem by Ross Wheeler,2013-07-27 15:25:00,
2013-07-27 11:30:00,77.8,65.0,30.02,SSW,200,0.0,0.0,64,0.00,,,0.00,oem by Ross Wheeler,2013-07-27 15:30:00,
2013-07-27 11:40:00,78.0,66.0,30.02,SE,140,1.0,0.0,67,0.00,,,0.00,oem by Ross Wheeler,2013-07-27 15:40:00,
2013-07-27 11:45:00,78.0,66.0,30.02,SSE,151,0.0,0.0,66,0.00,,,0.00,oem by Ross Wheeler,2013-07-27 15:45:00,
2013-07-27 11:55:00,78.0,67.0,30.02,WSW,243,0.0,0.0,70,0.00,,,0.00,oem by Ross Wheeler,2013-07-27 15:55:00,
2013-07-27 12:00:00,78.4,67.0,30.02,SSE,151,1.0,0.0,69,0.00,,,0.00,oem by Ross Wheeler,2013-07-27 16:00:00,
2013-07-27 12:10:00,78.6,67.0,30.02,ESE,119,3.0,0.0,68,0.00,,,0.00,oem by Ross Wheeler,2013-07-27 16:10:00,
2013-07-27 12:15:00,78.8,67.0,30.02,SE,126,1.0,0.0,68,0.00,,,0.00,oem by Ross Wheeler,2013-07-27 16:15:00,
2013-07-27 12:25:00,78.6,67.0,30.02,ESE,120,0.0,0.0,68,0.00,,,0.00,oem by Ross Wheeler,2013-07-27 16:25:00,
2013-07-27 12:31:00,78.8,67.0,30.01,SE,131,1.0,0.0,68,0.00,,,0.00,oem by Ross Wheeler,2013-07-27 16:31:00,
2013-07-27 12:40:00,78.6,67.0,30.01,SE,131,1.0,0.0,68,0.00,,,0.00,oem by Ross Wheeler,2013-07-27 16:40:00,
2013-07-27 12:45:00,79.0,68.0,30.01,SE,131,0.0,0.0,68,0.00,,,0.00,oem by Ross Wheeler,2013-07-27 16:45:00,
2013-07-27 12:55:00,79.9,68.0,30.00,ESE,110,1.0,0.0,68,0.00,,,0.00,oem by Ross Wheeler,2013-07-27 16:55:00,
2013-07-27 13:00:00,80.1,66.0,30.00,ESE,111,1.0,0.0,63,0.00,,,0.00,oem by Ross Wheeler,2013-07-27 17:00:00,
2013-07-27 13:10:00,80.1,64.0,30.00,ENE,72,0.0,0.0,59,0.00,,,0.00,oem by Ross Wheeler,2013-07-27 17:10:00,
2013-07-27 13:15:00,79.9,68.0,30.00,ENE,72,0.0,0.0,66,0.00,,,0.00,oem by Ross Wheeler,2013-07-27 17:15:00,
2013-07-27 13:25:00,79.7,67.0,30.00,ENE,72,0.0,0.0,65,0.00,,,0.00,oem by Ross Wheeler,2013-07-27 17:25:00,
2013-07-27 13:30:00,80.3,67.0,30.00,ESE,120,1.0,0.0,64,0.00,,,0.00,oem by Ross Wheeler,2013-07-27 17:30:00,
2013-07-27 13:40:00,80.3,67.0,30.00,East,93,0.0,0.0,63,0.00,,,0.00,oem by Ross Wheeler,2013-07-27 17:40:00,
2013-07-27 13:45:00,79.7,66.0,30.00,ESE,104,2.0,0.0,63,0.00,,,0.00,oem by Ross Wheeler,2013-07-27 17:45:00,
2013-07-27 13:55:00,80.1,66.0,29.99,SSW,206,1.0,0.0,62,0.00,,,0.00,oem by Ross Wheeler,2013-07-27 17:55:00,
2013-07-27 14:00:00,80.6,67.0,29.99,East,95,0.0,0.0,64,0.00,,,0.00,oem by Ross Wheeler,2013-07-27 18:00:00,
2013-07-27 14:10:00,81.0,67.0,29.99,SE,128,1.0,0.0,62,0.00,,,0.00,oem by Ross Wheeler,2013-07-27 18:10:00,
2013-07-27 14:15:00,81.0,66.0,29.99,SW,223,2.0,0.0,61,0.00,,,0.00,oem by Ross Wheeler,2013-07-27 18:15:00,
2013-07-27 14:25:00,81.2,68.0,29.98,SSE,154,0.0,0.0,64,0.00,,,0.00,oem by Ross Wheeler,2013-07-27 18:25:00,
2013-07-27 14:30:00,81.6,68.0,29.98,SE,145,1.0,0.0,64,0.00,,,0.00,oem by Ross Wheeler,2013-07-27 18:30:00,
2013-07-27 14:40:00,81.8,67.0,29.98,SE,126,0.0,0.0,62,0.00,,,0.00,oem by Ross Wheeler,2013-07-27 18:40:00,
2013-07-27 14:45:00,82.0,69.0,29.98,ESE,111,1.0,0.0,64,0.00,,,0.00,oem by Ross Wheeler,2013-07-27 18:45:00,
2013-07-27 14:55:00,82.4,68.0,29.97,East,93,2.0,0.0,61,0.00,,,0.00,oem by Ross Wheeler,2013-07-27 18:55:00,
2013-07-27 15:00:00,82.8,67.0,29.97,East,93,1.0,0.0,60,0.00,,,0.00,oem by Ross Wheeler,2013-07-27 19:00:00,
2013-07-27 15:10:00,81.8,67.0,29.97,ESE,114,1.0,0.0,61,0.00,,,0.00,oem by Ross Wheeler,2013-07-27 19:10:00,
2013-07-27 15:15:00,82.0,68.0,29.97,ESE,104,1.0,0.0,62,0.00,,,0.00,oem by Ross Wheeler,2013-07-27 19:15:00,
2013-07-27 15:25:00,81.4,67.0,29.96,SE,131,1.0,0.0,62,0.00,,,0.00,oem by Ross Wheeler,2013-07-27 19:25:00,
2013-07-27 15:30:00,81.2,68.0,29.96,ESE,103,3.0,0.0,64,0.00,,,0.00,oem by Ross Wheeler,2013-07-27 19:30:00,
2013-07-27 15:40:00,81.6,67.0,29.97,SE,124,0.0,0.0,61,0.00,,,0.00,oem by Ross Wheeler,2013-07-27 19:40:00,
2013-07-27 15:45:00,82.0,67.0,29.96,East,100,2.0,0.0,61,0.00,,,0.00,oem by Ross Wheeler,2013-07-27 19:45:00,
2013-07-27 15:55:00,82.2,67.0,29.96,ESE,121,1.0,0.0,61,0.00,,,0.00,oem by Ross Wheeler,2013-07-27 19:55:00,
2013-07-27 16:00:00,82.6,67.0,29.95,SE,131,3.0,0.0,59,0.00,,,0.00,oem by Ross Wheeler,2013-07-27 20:00:00,
2013-07-27 16:10:00,82.6,67.0,29.95,ESE,114,1.0,0.0,59,0.00,,,0.00,oem by Ross Wheeler,2013-07-27 20:10:00,
2013-07-27 16:15:00,82.6,66.0,29.95,SE,135,1.0,0.0,58,0.00,,,0.00,oem by Ross Wheeler,2013-07-27 20:15:00,
2013-07-27 16:25:00,82.0,67.0,29.95,East,99,2.0,0.0,61,0.00,,,0.00,oem by Ross Wheeler,2013-07-27 20:25:00,
2013-07-27 16:30:00,81.0,66.0,29.94,East,95,2.0,0.0,60,0.00,,,0.00,oem by Ross Wheeler,2013-07-27 20:30:00,
2013-07-27 16:40:00,80.3,65.0,29.94,East,100,2.0,0.0,60,0.00,,,0.00,oem by Ross Wheeler,2013-07-27 20:40:00,
2013-07-27 16:45:00,80.3,65.0,29.94,ESE,120,2.0,0.0,60,0.00,,,0.00,oem by Ross Wheeler,2013-07-27 20:45:00,
2013-07-27 16:55:00,79.0,64.0,29.94,ESE,111,1.0,0.0,61,0.00,,,0.00,oem by Ross Wheeler,2013-07-27 20:55:00,
2013-07-27 17:00:00,78.6,64.0,29.94,SE,124,2.0,0.0,62,0.00,,,0.00,oem by Ross Wheeler,2013-07-27 21:00:00,
2013-07-27 17:10:00,79.0,65.0,29.94,SE,124,1.0,0.0,62,0.00,,,0.00,oem by Ross Wheeler,2013-07-27 21:10:00,
2013-07-27 17:15:00,78.6,63.0,29.94,ESE,106,1.0,0.0,60,0.00,,,0.00,oem by Ross Wheeler,2013-07-27 21:15:00,
2013-07-27 17:25:00,77.3,64.0,29.94,ESE,114,1.0,0.0,63,0.00,,,0.00,oem by Ross Wheeler,2013-07-27 21:25:00,
2013-07-27 17:30:00,76.9,64.0,29.93,ESE,110,2.0,0.0,64,0.00,,,0.00,oem by Ross Wheeler,2013-07-27 21:30:00,
2013-07-27 17:40:00,76.6,64.0,29.93,ESE,110,2.0,0.0,65,0.00,,,0.00,oem by Ross Wheeler,2013-07-27 21:40:00,
2013-07-27 17:45:00,76.4,64.0,29.93,ESE,104,1.0,0.0,65,0.00,,,0.00,oem by Ross Wheeler,2013-07-27 21:45:00,
2013-07-27 17:55:00,76.2,64.0,29.93,ESE,111,0.0,0.0,66,0.00,,,0.00,oem by Ross Wheeler,2013-07-27 21:55:00,
2013-07-27 18:00:00,76.2,64.0,29.93,SE,126,1.0,0.0,66,0.00,,,0.00,oem by Ross Wheeler,2013-07-27 22:00:00,
2013-07-27 18:10:00,76.6,65.0,29.93,ESE,103,3.0,0.0,67,0.00,,,0.00,oem by Ross Wheeler,2013-07-27 22:10:00,
2013-07-27 18:15:00,76.6,64.0,29.93,ESE,120,3.0,0.0,65,0.00,,,0.00,oem by Ross Wheeler,2013-07-27 22:15:00,
2013-07-27 18:25:00,76.0,64.0,29.93,ESE,113,1.0,0.0,66,0.00,,,0.00,oem by Ross Wheeler,2013-07-27 22:25:00,
2013-07-27 18:30:00,76.0,64.0,29.93,ESE,104,3.0,0.0,66,0.00,,,0.00,oem by Ross Wheeler,2013-07-27 22:30:00,
2013-07-27 18:40:00,75.5,64.0,29.93,ESE,107,2.0,0.0,68,0.00,,,0.00,oem by Ross Wheeler,2013-07-27 22:40:00,
2013-07-27 18:45:00,75.3,64.0,29.93,ESE,117,2.0,0.0,67,0.00,,,0.00,oem by Ross Wheeler,2013-07-27 22:45:00,
2013-07-27 18:55:00,75.2,64.0,29.93,ESE,116,1.0,0.0,69,0.00,,,0.00,oem by Ross Wheeler,2013-07-27 22:55:00,
2013-07-27 19:00:00,75.2,64.0,29.93,SE,131,2.0,0.0,69,0.00,,,0.00,oem by Ross Wheeler,2013-07-27 23:00:00,
2013-07-27 19:10:00,75.0,64.0,29.93,ESE,120,1.0,0.0,68,0.00,,,0.00,oem by Ross Wheeler,2013-07-27 23:10:00,
2013-07-27 19:15:00,75.0,64.0,29.93,ESE,117,1.0,0.0,69,0.00,,,0.00,oem by Ross Wheeler,2013-07-27 23:15:00,
2013-07-27 19:25:00,74.8,64.0,29.94,SE,134,1.0,0.0,70,0.00,,,0.00,oem by Ross Wheeler,2013-07-27 23:25:00,
2013-07-27 19:30:00,74.5,64.0,29.94,ESE,119,1.0,0.0,70,0.00,,,0.00,oem by Ross Wheeler,2013-07-27 23:30:00,
2013-07-27 19:40:00,74.1,64.0,29.95,SE,128,1.0,0.0,70,0.00,,,0.00,oem by Ross Wheeler,2013-07-27 23:40:00,
2013-07-27 19:45:00,74.1,64.0,29.95,ESE,119,1.0,0.0,71,0.00,,,0.00,oem by Ross Wheeler,2013-07-27 23:45:00,
2013-07-27 19:55:00,73.8,65.0,29.95,ESE,119,1.0,0.0,73,0.00,,,0.00,oem by Ross Wheeler,2013-07-27 23:55:00,
2013-07-27 20:01:00,73.6,65.0,29.94,ESE,119,1.0,0.0,75,0.00,,,0.00,oem by Ross Wheeler,2013-07-28 00:01:00,
2013-07-27 20:10:00,73.2,66.0,29.94,ESE,119,0.0,0.0,77,0.00,,,0.00,oem by Ross Wheeler,2013-07-28 00:10:00,
2013-07-27 20:15:00,73.1,66.0,29.94,ESE,119,1.0,0.0,77,0.00,,,0.00,oem by Ross Wheeler,2013-07-28 00:15:00,
2013-07-27 20:25:00,72.9,66.0,29.94,ESE,119,0.0,0.0,78,0.00,,,0.00,oem by Ross Wheeler,2013-07-28 00:25:00,
2013-07-27 20:30:00,72.7,66.0,29.94,ESE,119,0.0,0.0,78,0.00,,,0.00,oem by Ross Wheeler,2013-07-28 00:30:00,
2013-07-27 20:40:00,72.5,65.0,29.95,ESE,119,0.0,0.0,78,0.00,,,0.00,oem by Ross Wheeler,2013-07-28 00:40:00,
2013-07-27 20:45:00,72.4,65.0,29.95,ESE,119,0.0,0.0,78,0.00,,,0.00,oem by Ross Wheeler,2013-07-28 00:45:00,
2013-07-27 20:55:00,72.2,65.0,29.96,SSW,207,0.0,0.0,79,0.00,,,0.00,oem by Ross Wheeler,2013-07-28 00:55:00,
2013-07-27 21:00:00,72.0,65.0,29.96,SSW,207,0.0,0.0,79,0.00,,,0.00,oem by Ross Wheeler,2013-07-28 01:00:00,
2013-07-27 21:10:00,71.9,65.0,29.97,SSW,207,0.0,0.0,80,0.00,,,0.00,oem by Ross Wheeler,2013-07-28 01:10:00,
2013-07-27 21:15:00,71.7,65.0,29.97,SSW,207,0.0,0.0,80,0.00,,,0.00,oem by Ross Wheeler,2013-07-28 01:15:00,
2013-07-27 21:25:00,71.5,65.0,29.97,SSW,207,0.0,0.0,80,0.00,,,0.00,oem by Ross Wheeler,2013-07-28 01:25:00,
2013-07-27 21:30:00,71.5,65.0,29.97,SSW,207,0.0,0.0,80,0.00,,,0.00,oem by Ross Wheeler,2013-07-28 01:30:00,
2013-07-27 21:40:00,71.2,65.0,29.97,SSW,207,0.0,0.0,81,0.00,,,0.00,oem by Ross Wheeler,2013-07-28 01:40:00,
2013-07-27 21:45:00,71.2,65.0,29.97,SSW,207,0.0,0.0,81,0.00,,,0.00,oem by Ross Wheeler,2013-07-28 01:45:00,
2013-07-27 21:55:00,71.0,65.0,29.96,SSW,207,0.0,0.0,82,0.00,,,0.00,oem by Ross Wheeler,2013-07-28 01:55:00,
2013-07-27 22:00:00,71.0,65.0,29.96,SSW,207,0.0,0.0,82,0.00,,,0.00,oem by Ross Wheeler,2013-07-28 02:00:00,
2013-07-27 22:10:00,70.8,65.0,29.97,SSW,207,0.0,0.0,83,0.00,,,0.00,oem by Ross Wheeler,2013-07-28 02:10:00,
2013-07-27 22:15:00,70.8,65.0,29.97,SSW,207,0.0,0.0,83,0.00,,,0.00,oem by Ross Wheeler,2013-07-28 02:15:00,
2013-07-27 22:25:00,70.7,66.0,29.97,SSW,207,0.0,0.0,84,0.00,,,0.00,oem by Ross Wheeler,2013-07-28 02:25:00,
2013-07-27 22:30:00,70.5,66.0,29.97,SSW,207,0.0,0.0,84,0.00,,,0.00,oem by Ross Wheeler,2013-07-28 02:30:00,
2013-07-27 22:40:00,70.5,66.0,29.96,SSW,207,0.0,0.0,84,0.00,,,0.00,oem by Ross Wheeler,2013-07-28 02:40:00,
2013-07-27 22:45:00,70.3,66.0,29.96,SSW,207,0.0,0.0,85,0.00,,,0.00,oem by Ross Wheeler,2013-07-28 02:45:00,
2013-07-27 22:55:00,70.1,66.0,29.95,SSW,207,0.0,0.0,86,0.00,,,0.00,oem by Ross Wheeler,2013-07-28 02:55:00,
2013-07-27 23:00:00,70.0,66.0,29.95,SSW,207,0.0,0.0,87,0.00,,,0.00,oem by Ross Wheeler,2013-07-28 03:00:00,
2013-07-27 23:10:00,69.8,66.0,29.94,SSW,207,0.0,0.0,88,0.00,,,0.00,oem by Ross Wheeler,2013-07-28 03:10:00,
2013-07-27 23:16:00,69.6,66.0,29.93,SSW,207,0.0,0.0,88,0.00,,,0.00,oem by Ross Wheeler,2013-07-28 03:16:00,
2013-07-27 23:25:00,69.5,66.0,29.93,SSW,207,0.0,0.0,88,0.00,,,0.00,oem by Ross Wheeler,2013-07-28 03:25:00,
2013-07-27 23:30:00,69.5,66.0,29.93,SSW,207,0.0,0.0,89,0.00,,,0.00,oem by Ross Wheeler,2013-07-28 03:30:00,
2013-07-27 23:40:00,69.3,66.0,29.93,SSW,207,0.0,0.0,89,0.00,,,0.00,oem by Ross Wheeler,2013-07-28 03:40:00,
2013-07-27 23:45:00,69.3,66.0,29.93,SSW,207,0.0,0.0,89,0.00,,,0.00,oem by Ross Wheeler,2013-07-28 03:45:00,
2013-07-27 23:55:00,69.1,66.0,29.93,SSW,207,0.0,0.0,90,0.00,,,0.00,oem by Ross Wheeler,2013-07-28 03:55:00,